www.pogodaiklimat.ru

Погода и климат >> Архив погоды >> Иран >> Nehbandan


ПОГОДА в Nehbandan

  • Прогноз погоды в Nehbandan
  • Монитор погоды в Nehbandan
  • Климат города

АРХИВ ПОГОДЫ в Nehbandan

Время (UTC), дата Ветер
(напр.,м/с)
 
Видим.   Явления Облачность Т
(С)
Тd
(С)
f
(%)
Тe
(С)
Тes
(С)
Комфортность P
(гПа)
Po
(гПа)
Тmin
(С)
Tmax
(С)
R
(мм)
R24
(мм)
S
(см)
00 12.11 СВ 2 15 км ясно +12.2 -6.9 26 +12 +12 1010.7 880.9
03 12.11 штиль 0 18 км 3/1 1050 м
[Cu hum Ac trans]
+10.8 -5.8 31 +11 +11 1013.0 881.6 +10.8
06 12.11 штиль 0 15 км 1/0
[Ac trans]
+20.4 -2.5 21 +20 +28 1011.8 882.1
09 12.11 ЮЗ 3 15 км 5/3 1200 м
[Cu hum Ac trans Ci fib]
+22.4 -0.1 22 +22 +26 комфорт 1010.2 881.0
12 12.11 ЮЗ 4 15 км 5/1 1050 м
[Cu med, cong Ac trans]
+23.0 -7.0 13 +21 +21 комфорт 1007.6 878.3
15 12.11 штиль 0 15 км 5/3 1200 м
[Cu hum Ac trans]
+20.3 -8.4 14 +19 +19 1010.1 879.6 +24.2
18 12.11 штиль 0 15 км ясно +13.8 -4.8 27 +14 +14 1010.0 880.2
21 12.11 штиль 0 15 км ясно +10.9 -6.0 30 +11 +11 1009.4 880.6
00 13.11 штиль 0 15 км 3/0
[Ac trans]
+13.0 -1.4 37 +13 +13 1010.0 880.6
03 13.11 штиль 0 15 км 3/3 1200 м
[Cu hum]
+8.5 -2.8 45 +8 +8 1013.2 881.9 +8.5
06 13.11 З 2 18 км 1/1 1000 м
[Cu hum]
+17.4 -1.7 27 +18 +23 1013.8 882.9
09 13.11 ЮВ 2 18 км 8/8 1050 м
[Cu Sc]
+19.8 -2.6 22 +20 +22 1012.2 881.4
12 13.11 СВ 2 18 км {дождь} 4/3 1050 м
[Cu hum Ac trans]
+20.4 -2.0 22 +21 +22 комфорт 1010.5 880.5 0.4
15 13.11 С 5 15 км 3/0
[Ac trans]
+16.1 -2.3 28 +15 +15 1014.3 882.0 +20.4
18 13.11 штиль 0 15 км ясно +11.8 -2.4 37 +12 +12 1014.4 883.0
21 13.11 штиль 0 15 км ясно +10.4 -3.0 39 +10 +10 1013.8 882.7
00 14.11 штиль 0 15 км ясно +7.4 -2.8 48 +7 +7 1013.9 882.3
03 14.11 штиль 0 15 км ясно +7.7 -2.7 48 +7 +7 1016.3 883.5 +6.2
06 14.11 штиль 0 15 км ясно +15.9 -2.0 29 +16 +24 1016.5 884.5
09 14.11 С 4 15 км 4/4 1050 м
[Cu hum]
+17.4 -3.2 24 +17 +20 1014.4 882.7
12 14.11 С 4 18 км 3/3 1050 м
[Cu hum]
+18.6 -5.3 19 +18 +19 1013.6 881.6
15 14.11 С 4 15 км ясно +13.9 -2.7 32 +13 +13 1016.5 883.2 +19.5
18 14.11 В 2 15 км ясно +10.4 -3.0 39 +10 +10 1016.1 883.9
21 14.11 ЮЗ 2 15 км ясно +7.2 -3.4 47 +6 +6 1015.4 883.3
00 15.11 штиль 0 15 км ясно +4.8 -3.2 56 +4 +4 1015.8 883.0
03 15.11 штиль 0 20 км ясно +4.1 -3.5 58 +4 +4 1018.5 884.2 +4.1
06 15.11 штиль 0 20 км ясно +13.4 -3.7 30 +13 +21 1018.7 885.6
09 15.11 Ю 2 20 км ясно +17.0 -6.4 20 +17 +25 1016.4 883.6
12 15.11 ЮЗ 2 20 км ясно +18.0 -7.3 17 +19 +20 1015.0 882.1
15 15.11 СЗ 2 15 км ясно +12.2 -5.2 29 +12 +12 1018.1 883.4 +18.2
18 15.11 СЗ 3 15 км ясно +8.9 -4.0 40 +7 +7 1017.6 884.3
21 15.11 штиль 0 15 км ясно +6.5 -5.3 43 +6 +6 1017.1 883.9
00 16.11 штиль 0 15 км ясно +4.2 -5.8 48 +4 +4 1017.9 884.5
03 16.11 штиль 0 20 км ясно +2.6 -6.1 53 +2 +2 1021.1 885.7 +2.3
06 16.11 штиль 0 18 км ясно +12.8 -4.5 30 +13 +21 1021.2 887.3
09 16.11 штиль 0 20 км ясно +16.8 -6.4 20 +17 +27 1018.7 885.4
12 16.11 штиль 0 20 км 1/1 1000 м
[Cu hum]
+17.9 -6.6 18 +18 +19 1018.3 884.8
15 16.11 штиль 0 15 км ясно +12.3 -5.4 29 +12 +12 1021.6 886.1 +18.4
18 16.11 штиль 0 15 км ясно +8.9 -4.4 39 +9 +9 1020.6 886.8
21 16.11 штиль 0 15 км ясно +5.0 -6.6 43 +5 +5 1019.6 886.4
00 17.11 штиль 0 15 км ясно +3.8 -6.1 48 +4 +4 1020.0 886.2
03 17.11 штиль 0 20 км ясно +2.8 -6.1 52 +2 +2 1023.0 887.4 +2.5
06 17.11 штиль 0 20 км ясно +11.0 -5.5 31 +11 +19 1023.6 889.0
09 17.11 штиль 0 20 км ясно +17.0 -7.5 18 +17 +28 1020.6 886.8
12 17.11 штиль 0 20 км ясно +18.2 -9.1 15 +18 +20 1019.3 885.6
15 17.11 ЮЗ 3 15 км ясно +11.8 -11.2 19 +11 +11 1022.8 887.0 +18.7
18 17.11 штиль 0 15 км ясно +7.0 -11.5 25 +7 +7 1022.4 887.4
21 17.11 штиль 0 15 км ясно +3.5 -12.7 29 +4 +4 887.0
03 18.11 штиль 0 20 км ясно +0.6 -12.5 37 +1 +1 1025.0 888.4 +0.6
06 18.11 штиль 0 20 км ясно +11.9 -12.3 17 +12 +20 1025.8 890.6
09 18.11 Ю 3 20 км ясно +17.1 -19.3 7 +17 +24 1023.2 888.6
12 18.11 Ю 2 20 км ясно +18.4 -21.6 5 +19 +20 1022.8 888.2
15 18.11 В 2 15 км ясно +11.1 -16.4 13 +11 +11 1025.6 888.8 +19.0
18 18.11 штиль 0 15 км ясно +7.8 -16.2 16 +8 +8 1024.7 889.8

 

Местоположение метеостанции Nehbandan (Иран): широта 31.53 долгота 60.03 высота над уровнем моря 1211 м.

В архиве по умолчанию представлена погода в Nehbandan за последнюю неделю. Архивные данные за месяц целиком и за предыдущие месяцы, начиная с января 2011 года, Вы можете получить, выбрав интересующий диапазон дат из раскрывающегося списка и нажав кнопку "Ввод!".

Внимание! Время в таблицах - всемирное. Для получения местного времени необходимо прибавить поправку, которая в Nehbandan равна 3.5 ч.

Смотрите также архив погоды в соседних городах и на ближайших метеорологических станциях:

Погода в Zabol (Иран) (148 км)
Погода в Birjand (Иран) (168 км)
Погода в Zahedan (Иран) (243 км)
Погода в Bam (Иран) (312 км)
Погода в Kerman (Иран) (325 км)
Погода в Ferdous (Иран) (327 км)
Погода в Herat (Афганистан) (362 км)
Погода в Tabas (Иран) (371 км)
Погода в Nokkundi (Пакистан) (399 км)
Погода в Lashkargah (Афганистан) (411 км)

Пояснения к столбцам:

Ветер - указаны скорость ветра в м/с - средняя за 10 мин, порывы в срок и между сроками (в фигурных скобках) и направление, откуда дует ветер: С - северный, СВ - северо-восточный, В - восточный, ЮВ - юго-восточный, Ю - южный, ЮЗ - юго-западный, З - западный, СЗ - северо-западный.
Видимость - горизонтальная дальность видимости в метрах или километрах. При видимости от 1 до 10 км при отсутствии осадков обычно наблюдается дымка, при ухудшении видимости до 1 км и менее - туман. В сухую погоду видимость может ухудшаться дымом, пылью или мглою.
Явления - указаны атмосферные явления, наблюдавшиеся в срок или в последний час перед сроком; фигурными скобками обозначены явления, наблюдавшиеся между сроками (за 1-3 часа до срока); квадратными скобками обозначены град или гололедные отложения с указанием их диаметра в мм.
Облачность - указаны через наклонную черту общая и нижняя облачность в баллах и высота нижней границы облаков в метрах; квадратными скобками обозначены формы облаков: Ci - перистые, Cs - перисто-слоистые, Cc - перисто-кучевые, Ac - высококучевые, As - высокослоистые, Sc - слоисто-кучевые, Ns - слоисто-дождевые, Cu - кучевые, Cb - кучево-дождевые. Подробнее классификацию облаков см. в Атласе облаков (PDF).
T - Температура воздуха - температура, измеренная на высоте 2 м над землей.
Td - Температура точки росы - температура, при понижении до которой содержащийся в воздухе водяной пар достигнет насыщения.
f - Относительная влажность воздуха - влажноcть воздуха, измеренная на высоте 2 м над землей.
Te - Эффективная температура - температура, которую ощущает одетый по сезону человек в тени. Характеристика душности погоды. При расчете учитывается влияние влажности воздуха и скорости ветра на теплоощущения человека.
Tes - Эффективная температура на солнце - температура, которую ощущает человек, с поправкой на солнечный нагрев. Характеристика знойности погоды. Зависит от высоты солнца над горизонтом, облачности и скорости ветра. Ночью, в пасмурную погоду, а также при ветре 12 м/с и более поправка равна нулю.
P - Атмосферное давление - приведенное к уровню моря атмосферное давление.
Po - Атмосферное давление - измеренное на уровне метеостанции атмосферное давление.
Tmin - Минимальная температура - минимум температуры воздуха на высоте 2 м над землей.
Tmax - Максимальная температура - максимум температуры воздуха на высоте 2 м над землей.
R - Количество осадков - Количество выпавших осадков за период времени, мм. При наведении курсора мыши на число - период времени, за который выпало указанное количество осадков.
R24 - Количество осадков - Количество выпавших осадков за 24 часа, мм.
S - Снежный покров - Высота снежного покрова, см. При наведении курсора мыши на число - состояние снежного покрова и степень покрытия местности в баллах.